TimeIST,TemperatureF,Dew PointF,Humidity,Sea Level PressureIn,VisibilityMPH,Wind Direction,Wind SpeedMPH,Gust SpeedMPH,PrecipitationIn,Events,Conditions,WindDirDegrees,DateUTC
12:00 AM,62.6,55.4,77,30.04,0.4,Calm,Calm,-,N/A,Fog,Shallow Fog,0,2012-11-16 18:30:00
12:30 AM,60.8,55.4,82,30.04,-9999.0,Calm,Calm,-,N/A,Fog,Shallow Fog,0,2012-11-16 19:00:00
1:00 AM,60.8,53.6,77,30.01,0.3,Calm,Calm,-,N/A,Fog,Fog,0,2012-11-16 19:30:00
1:30 AM,60.8,53.6,77,30.01,0.2,Calm,Calm,-,N/A,Fog,Fog,0,2012-11-16 20:00:00
2:00 AM,59.0,53.6,82,30.01,0.2,Calm,Calm,-,N/A,Fog,Fog,0,2012-11-16 20:30:00
2:30 AM,59.0,53.6,82,30.01,0.2,Calm,Calm,-,N/A,Fog,Fog,0,2012-11-16 21:00:00
3:00 AM,57.2,53.6,88,30.01,0.2,Calm,Calm,-,N/A,Fog,Fog,0,2012-11-16 21:30:00
3:30 AM,57.2,53.6,88,30.01,0.2,Calm,Calm,-,N/A,Fog,Fog,0,2012-11-16 22:00:00
4:00 AM,55.4,51.8,88,30.01,0.2,WSW,3.5,-,N/A,Fog,Fog,250,2012-11-16 22:30:00
4:30 AM,55.4,51.8,88,30.01,0.2,Calm,Calm,-,N/A,Fog,Fog,0,2012-11-16 23:00:00
5:00 AM,55.4,51.8,88,30.01,0.2,SW,4.6,-,N/A,Fog,Fog,230,2012-11-16 23:30:00
5:30 AM,55.4,51.8,88,30.01,0.2,Calm,Calm,-,N/A,Fog,Fog,0,2012-11-17 00:00:00
6:00 AM,55.4,50.0,82,30.01,0.3,West,3.5,-,N/A,Fog,Fog,270,2012-11-17 00:30:00
6:30 AM,55.4,50.0,82,30.04,0.2,West,3.5,-,N/A,Fog,Fog,270,2012-11-17 01:00:00
7:00 AM,55.4,50.0,82,30.04,0.2,WSW,3.5,-,N/A,Fog,Fog,250,2012-11-17 01:30:00
7:30 AM,55.4,50.0,82,30.04,0.2,WSW,3.5,-,N/A,Fog,Fog,250,2012-11-17 02:00:00
8:00 AM,55.4,50.0,82,30.04,0.3,Calm,Calm,-,N/A,Fog,Shallow Fog,0,2012-11-17 02:30:00
8:30 AM,57.2,50.0,77,30.04,0.4,Calm,Calm,-,N/A,Fog,Shallow Fog,0,2012-11-17 03:00:00
9:00 AM,59.0,50.0,72,30.06,0.4,West,4.6,-,N/A,,Smoke,260,2012-11-17 03:30:00
10:00 AM,64.4,50.0,59,30.06,0.6,West,4.6,-,N/A,,Smoke,260,2012-11-17 04:30:00
11:30 AM,73.4,51.8,47,30.06,0.7,West,5.8,-,N/A,,Smoke,270,2012-11-17 06:00:00
12:00 PM,75.2,51.8,44,30.04,0.8,West,5.8,-,N/A,,Smoke,270,2012-11-17 06:30:00
1:00 PM,77.0,53.6,44,30.01,0.9,NW,6.9,-,N/A,,Smoke,320,2012-11-17 07:30:00
1:30 PM,77.0,53.6,44,29.98,0.9,NW,6.9,-,N/A,,Smoke,320,2012-11-17 08:00:00
2:00 PM,78.8,51.8,39,29.98,1.1,WNW,5.8,-,N/A,,Smoke,300,2012-11-17 08:30:00
2:30 PM,78.8,51.8,39,29.98,1.3,NW,5.8,-,N/A,,Smoke,310,2012-11-17 09:00:00
3:00 PM,78.8,51.8,39,29.98,1.3,NW,6.9,-,N/A,,Smoke,310,2012-11-17 09:30:00
3:30 PM,78.8,50.0,36,29.95,1.3,WNW,4.6,-,N/A,,Smoke,300,2012-11-17 10:00:00
4:30 PM,78.8,51.8,39,29.95,1.5,NW,5.8,-,N/A,,Smoke,310,2012-11-17 11:00:00
5:00 PM,77.0,51.8,41,29.95,1.5,WNW,4.6,-,N/A,,Smoke,300,2012-11-17 11:30:00
5:30 PM,75.2,51.8,44,29.95,1.5,West,3.5,-,N/A,,Smoke,260,2012-11-17 12:00:00
6:00 PM,73.4,53.6,50,29.95,1.3,Calm,Calm,-,N/A,,Smoke,0,2012-11-17 12:30:00
6:30 PM,71.6,51.8,50,29.95,1.3,Calm,Calm,-,N/A,,Smoke,0,2012-11-17 13:00:00
7:00 PM,69.8,51.8,53,29.95,1.0,Calm,Calm,-,N/A,,Smoke,0,2012-11-17 13:30:00
8:00 PM,68.0,51.8,56,29.98,0.7,Calm,Calm,-,N/A,,Smoke,0,2012-11-17 14:30:00
8:30 PM,66.2,51.8,60,29.98,0.7,Calm,Calm,-,N/A,,Smoke,0,2012-11-17 15:00:00
9:00 PM,66.2,51.8,60,29.98,0.7,Calm,Calm,-,N/A,,Smoke,0,2012-11-17 15:30:00
9:30 PM,64.4,51.8,64,29.98,0.6,Calm,Calm,-,N/A,,Smoke,0,2012-11-17 16:00:00
10:00 PM,64.4,51.8,64,29.98,0.6,Calm,Calm,-,N/A,,Smoke,0,2012-11-17 16:30:00
10:30 PM,62.6,51.8,68,29.98,0.6,Calm,Calm,-,N/A,,Smoke,0,2012-11-17 17:00:00
11:00 PM,62.6,50.0,63,29.98,0.6,Calm,Calm,-,N/A,,Smoke,0,2012-11-17 17:30:00
11:30 PM,62.6,50.0,63,29.98,0.6,Calm,Calm,-,N/A,,Smoke,0,2012-11-17 18:00:00